TimeCST,TemperatureF,Dew PointF,Humidity,Sea Level PressureIn,VisibilityMPH,Wind Direction,Wind SpeedMPH,Gust SpeedMPH,PrecipitationIn,Events,Conditions,WindDirDegrees,DateUTC
12:54 AM,21.9,21.0,96,29.88,7.0,West,6.9,-,N/A,,Overcast,280,2013-12-21 06:54:00
1:54 AM,21.9,19.9,92,29.90,6.0,WNW,4.6,-,N/A,,Overcast,290,2013-12-21 07:54:00
2:54 AM,21.9,19.9,92,29.89,7.0,NW,9.2,-,N/A,,Overcast,310,2013-12-21 08:54:00
3:02 AM,21.9,19.9,92,29.84,7.0,NW,9.2,-,N/A,,Overcast,320,2013-12-21 09:02:00
3:13 AM,21.9,19.9,92,29.83,7.0,NW,9.2,-,N/A,,Overcast,320,2013-12-21 09:13:00
3:54 AM,21.0,19.9,96,29.86,6.0,NW,10.4,-,N/A,,Overcast,320,2013-12-21 09:54:00
4:54 AM,21.9,19.9,92,29.86,5.0,NNW,8.1,-,N/A,,Overcast,340,2013-12-21 10:54:00
5:54 AM,21.9,19.0,89,29.88,7.0,North,9.2,-,N/A,,Overcast,350,2013-12-21 11:54:00
6:27 AM,21.9,19.0,89,29.84,7.0,North,8.1,-,N/A,,Overcast,360,2013-12-21 12:27:00
6:54 AM,21.9,19.9,92,29.87,7.0,North,6.9,-,N/A,,Overcast,360,2013-12-21 12:54:00
7:54 AM,21.9,19.0,89,29.89,7.0,North,4.6,-,N/A,,Overcast,350,2013-12-21 13:54:00
8:54 AM,21.9,19.9,92,29.90,5.0,NNW,8.1,-,N/A,,Overcast,340,2013-12-21 14:54:00
9:17 AM,21.9,19.9,92,29.87,5.0,North,6.9,-,N/A,,Overcast,350,2013-12-21 15:17:00
9:49 AM,23.0,19.4,86,29.88,6.0,North,8.1,-,N/A,,Overcast,360,2013-12-21 15:49:00
9:54 AM,23.0,19.9,88,29.91,6.0,North,8.1,-,N/A,,Overcast,10,2013-12-21 15:54:00
10:14 AM,23.0,19.9,88,29.86,6.0,North,8.1,-,N/A,,Overcast,10,2013-12-21 16:14:00
10:40 AM,24.1,19.9,84,29.85,7.0,NNE,9.2,-,N/A,,Overcast,20,2013-12-21 16:40:00
10:54 AM,24.1,19.9,84,29.87,7.0,NNE,10.4,-,N/A,,Overcast,20,2013-12-21 16:54:00
11:54 AM,25.0,21.0,85,29.92,8.0,NNE,5.8,-,N/A,,Overcast,20,2013-12-21 17:54:00
12:54 PM,25.0,21.9,88,29.88,7.0,NNE,8.1,-,N/A,,Overcast,20,2013-12-21 18:54:00
1:29 PM,25.0,21.9,88,29.84,5.0,North,9.2,-,N/A,,Overcast,10,2013-12-21 19:29:00
1:54 PM,25.0,23.0,92,29.86,5.0,NNE,9.2,-,N/A,,Overcast,30,2013-12-21 19:54:00
2:54 PM,25.0,23.0,92,29.87,5.0,North,10.4,-,N/A,,Overcast,10,2013-12-21 20:54:00
3:54 PM,25.0,23.0,92,29.86,5.0,NNE,12.7,-,N/A,,Overcast,30,2013-12-21 21:54:00
4:54 PM,25.0,23.0,92,29.84,7.0,NNE,11.5,-,N/A,,Overcast,30,2013-12-21 22:54:00
5:54 PM,25.0,23.0,92,29.87,7.0,NNE,10.4,-,N/A,,Overcast,30,2013-12-21 23:54:00
6:54 PM,25.0,23.0,92,29.87,7.0,NE,12.7,-,N/A,,Overcast,40,2013-12-22 00:54:00
7:54 PM,25.0,23.0,92,29.83,7.0,NNE,13.8,-,N/A,,Overcast,30,2013-12-22 01:54:00
8:54 PM,25.0,23.0,92,29.79,5.0,NNE,15.0,-,N/A,,Overcast,30,2013-12-22 02:54:00
9:54 PM,26.1,24.1,92,29.81,5.0,NNE,15.0,-,N/A,,Overcast,20,2013-12-22 03:54:00
10:54 PM,26.1,25.0,96,29.83,5.0,NNE,13.8,-,N/A,,Overcast,30,2013-12-22 04:54:00
11:50 PM,26.6,24.8,93,29.77,2.5,NNE,15.0,-,0.00,Snow,Light Snow,30,2013-12-22 05:50:00
11:54 PM,26.1,25.0,96,29.80,2.5,NNE,15.0,-,0.00,Snow,Light Snow,30,2013-12-22 05:54:00